When you browse on this site, cookies collect data to enhance your experience and personalize the content and advertising you see.
Visit our Privacy Policy to learn more. By continuing to use the site, you agree to this use of cookies and data.
  • în România
  • Lista ţărilor
  • Pe 7 zile
  • Temperatura apei
  • Hartă satelitară
  • Meteo pe hartă
  • Widget-uri
  • user-avatar
    Intrare

    Meteo pe oră la Santa Fe

    Astăzi, 17 Ianuarie, Joi

    Timp Temperatura Precipitaţii Vânt Presiune Umiditate
    00:00 +26°C° 0 mm 2 m/s 756 mmHg 77%
    01:00 +25°C° 0 mm 2 m/s 756 mmHg 79%
    02:00 +25°C° 0 mm 2 m/s 756 mmHg 82%
    03:00 +25°C° 0 mm 2 m/s 757 mmHg 83%
    04:00 +24°C° 0 mm 2 m/s 757 mmHg 84%
    05:00 +24°C° 0 mm 2 m/s 757 mmHg 86%
    06:00 +25°C° 0 mm 3 m/s 758 mmHg 82%
    07:00 +26°C° 0 mm 4 m/s 758 mmHg 79%
    08:00 +27°C° 0 mm 5 m/s 759 mmHg 75%
    09:00 +28°C° 0.2 mm 5 m/s 759 mmHg 71%
    10:00 +29°C° 0.2 mm 6 m/s 760 mmHg 67%
    11:00 +30°C° 0.2 mm 6 m/s 760 mmHg 62%
    12:00 +29°C° 0.4 mm 6 m/s 760 mmHg 65%
    13:00 +29°C° 0.4 mm 5 m/s 760 mmHg 67%
    14:00 +28°C° 0.4 mm 4 m/s 759 mmHg 69%
    15:00 +28°C° 0.7 mm 4 m/s 759 mmHg 73%
    16:00 +27°C° 0.7 mm 4 m/s 759 mmHg 77%
    17:00 +26°C° 0.7 mm 4 m/s 759 mmHg 81%
    18:00 +25°C° 0.9 mm 4 m/s 759 mmHg 83%
    19:00 +25°C° 0.9 mm 4 m/s 760 mmHg 86%
    20:00 +23°C° 0.9 mm 4 m/s 760 mmHg 88%
    21:00 +22°C° 0.8 mm 4 m/s 760 mmHg 88%
    22:00 +22°C° 0.8 mm 5 m/s 761 mmHg 88%
    23:00 +21°C° 0.8 mm 5 m/s 761 mmHg 88%

    Mâine, 18 Ianuarie, Vineri

    Timp Temperatura Precipitaţii Vânt Presiune Umiditate
    00:00 +20°C° 0.8 mm 5 m/s 761 mmHg 88%
    01:00 +19°C° 0.8 mm 6 m/s 761 mmHg 89%
    02:00 +19°C° 0.8 mm 6 m/s 761 mmHg 90%
    03:00 +17°C° 1.5 mm 6 m/s 761 mmHg 89%
    04:00 +17°C° 1.5 mm 6 m/s 762 mmHg 88%
    05:00 +17°C° 1.5 mm 6 m/s 762 mmHg 87%
    06:00 +16°C° 0.8 mm 6 m/s 762 mmHg 88%
    07:00 +16°C° 0.8 mm 5 m/s 763 mmHg 90%
    08:00 +15°C° 0.8 mm 5 m/s 763 mmHg 91%
    09:00 +16°C° 0 mm 5 m/s 763 mmHg 89%
    10:00 +17°C° 0 mm 5 m/s 763 mmHg 86%
    11:00 +17°C° 0 mm 5 m/s 763 mmHg 83%
    12:00 +21°C° 0 mm 5 m/s 763 mmHg 76%
    13:00 +23°C° 0 mm 5 m/s 763 mmHg 68%
    14:00 +26°C° 0 mm 5 m/s 762 mmHg 61%
    15:00 +26°C° 0 mm 4 m/s 762 mmHg 62%
    16:00 +26°C° 0 mm 4 m/s 761 mmHg 64%
    17:00 +26°C° 0 mm 4 m/s 761 mmHg 65%
    18:00 +25°C° 0 mm 3 m/s 761 mmHg 69%
    19:00 +23°C° 0 mm 2 m/s 761 mmHg 74%
    20:00 +21°C° 0 mm 2 m/s 761 mmHg 78%
    21:00 +22°C° 0 mm 1 m/s 762 mmHg 80%
    22:00 +21°C° 0 mm 1 m/s 762 mmHg 82%
    23:00 +21°C° 0 mm 1 m/s 762 mmHg 84%

    Poimâine, 19 Ianuarie, Sâmbătă

    Timp Temperatura Precipitaţii Vânt Presiune Umiditate
    00:00 +20°C° 0 mm 1 m/s 762 mmHg 85%
    01:00 +19°C° 0 mm 2 m/s 762 mmHg 86%
    02:00 +19°C° 0 mm 2 m/s 762 mmHg 87%
    03:00 +18°C° 0 mm 2 m/s 762 mmHg 88%
    04:00 +18°C° 0 mm 2 m/s 762 mmHg 90%
    05:00 +18°C° 0 mm 2 m/s 762 mmHg 91%
    06:00 +19°C° 0 mm 2 m/s 762 mmHg 86%
    07:00 +21°C° 0 mm 3 m/s 763 mmHg 81%
    08:00 +22°C° 0 mm 3 m/s 763 mmHg 76%
    09:00 +25°C° 0 mm 3 m/s 763 mmHg 69%
    10:00 +26°C° 0 mm 4 m/s 763 mmHg 62%
    11:00 +28°C° 0 mm 4 m/s 763 mmHg 55%
    12:00 +29°C° 0 mm 4 m/s 762 mmHg 53%
    13:00 +29°C° 0 mm 4 m/s 762 mmHg 50%
    14:00 +30°C° 0 mm 4 m/s 761 mmHg 48%
    15:00 +30°C° 0 mm 4 m/s 761 mmHg 49%
    16:00 +29°C° 0 mm 4 m/s 760 mmHg 51%
    17:00 +29°C° 0 mm 4 m/s 760 mmHg 52%
    18:00 +27°C° 0 mm 3 m/s 760 mmHg 59%
    19:00 +26°C° 0 mm 3 m/s 760 mmHg 66%
    20:00 +24°C° 0 mm 3 m/s 760 mmHg 73%
    21:00 +22°C° 0 mm 3 m/s 760 mmHg 76%
    22:00 +23°C° 0 mm 2 m/s 761 mmHg 78%
    23:00 +21°C° 0 mm 2 m/s 761 mmHg 81%

    20 Ianuarie, Duminică

    Timp Temperatura Precipitaţii Vânt Presiune Umiditate
    00:00 +21°C° 0 mm 2 m/s 761 mmHg 83%
    01:00 +20°C° 0 mm 2 m/s 760 mmHg 85%
    02:00 +20°C° 0 mm 2 m/s 760 mmHg 88%
    03:00 +19°C° 0 mm 2 m/s 760 mmHg 90%
    04:00 +19°C° 0 mm 2 m/s 760 mmHg 91%
    05:00 +19°C° 0 mm 2 m/s 760 mmHg 93%
    06:00 +20°C° 0 mm 2 m/s 760 mmHg 88%
    07:00 +22°C° 0 mm 3 m/s 760 mmHg 82%
    08:00 +24°C° 0 mm 3 m/s 760 mmHg 76%
    09:00 +26°C° 0 mm 3 m/s 760 mmHg 71%
    10:00 +27°C° 0 mm 3 m/s 760 mmHg 65%
    11:00 +29°C° 0 mm 3 m/s 760 mmHg 60%
    12:00 +29°C° 0.1 mm 3 m/s 759 mmHg 59%
    13:00 +29°C° 0.1 mm 3 m/s 758 mmHg 59%
    14:00 +29°C° 0.1 mm 3 m/s 757 mmHg 59%
    15:00 +30°C° 0 mm 3 m/s 757 mmHg 58%
    16:00 +30°C° 0 mm 3 m/s 756 mmHg 57%
    17:00 +30°C° 0 mm 3 m/s 755 mmHg 56%
    18:00 +28°C° 0 mm 3 m/s 755 mmHg 63%
    19:00 +27°C° 0 mm 2 m/s 755 mmHg 69%
    20:00 +25°C° 0 mm 2 m/s 756 mmHg 75%
    21:00 +25°C° 0 mm 2 m/s 756 mmHg 79%
    22:00 +24°C° 0 mm 2 m/s 756 mmHg 83%
    23:00 +23°C° 0 mm 2 m/s 757 mmHg 87%

    21 Ianuarie, Luni

    Timp Temperatura Precipitaţii Vânt Presiune Umiditate
    00:00 +23°C° 0 mm 2 m/s 756 mmHg 89%
    01:00 +22°C° 0 mm 1 m/s 756 mmHg 91%
    02:00 +22°C° 0 mm 1 m/s 756 mmHg 92%
    03:00 +22°C° 0 mm 1 m/s 756 mmHg 93%
    04:00 +21°C° 0 mm 1 m/s 756 mmHg 93%
    05:00 +21°C° 0 mm 1 m/s 756 mmHg 93%
    06:00 +23°C° 0 mm 1 m/s 756 mmHg 87%
    07:00 +25°C° 0 mm 1 m/s 756 mmHg 81%
    08:00 +26°C° 0 mm 1 m/s 757 mmHg 74%
    09:00 +28°C° 0 mm 1 m/s 757 mmHg 67%
    10:00 +29°C° 0 mm 0 m/s 757 mmHg 60%
    11:00 +31°C° 0 mm 0 m/s 756 mmHg 53%
    12:00 +32°C° 0 mm 0 m/s 756 mmHg 49%
    13:00 +33°C° 0 mm 0 m/s 755 mmHg 45%
    14:00 +34°C° 0 mm 0 m/s 755 mmHg 41%
    15:00 +35°C° 0 mm 1 m/s 754 mmHg 41%
    16:00 +35°C° 0 mm 1 m/s 754 mmHg 41%
    17:00 +34°C° 0 mm 1 m/s 754 mmHg 42%
    18:00 +32°C° 0 mm 1 m/s 754 mmHg 48%
    19:00 +30°C° 0 mm 1 m/s 754 mmHg 53%
    20:00 +28°C° 0 mm 1 m/s 754 mmHg 59%
    21:00 +28°C° 0 mm 2 m/s 755 mmHg 63%
    22:00 +27°C° 0 mm 2 m/s 755 mmHg 67%
    23:00 +26°C° 0 mm 2 m/s 755 mmHg 70%

    22 Ianuarie, Marţi

    Timp Temperatura Precipitaţii Vânt Presiune Umiditate
    00:00 +26°C° 0 mm 2 m/s 755 mmHg 73%
    01:00 +25°C° 0 mm 2 m/s 755 mmHg 77%
    02:00 +25°C° 0 mm 2 m/s 754 mmHg 80%
    03:00 +25°C° 0 mm 2 m/s 754 mmHg 82%
    04:00 +24°C° 0 mm 2 m/s 754 mmHg 85%
    05:00 +24°C° 0 mm 2 m/s 754 mmHg 87%
    06:00 +26°C° 0 mm 2 m/s 754 mmHg 81%
    07:00 +27°C° 0 mm 2 m/s 755 mmHg 75%
    08:00 +29°C° 0 mm 3 m/s 755 mmHg 69%
    09:00 +31°C° 0 mm 3 m/s 755 mmHg 63%
    10:00 +33°C° 0 mm 3 m/s 755 mmHg 57%
    11:00 +35°C° 0 mm 4 m/s 754 mmHg 50%
    12:00 +36°C° 0 mm 4 m/s 754 mmHg 49%
    13:00 +37°C° 0 mm 4 m/s 753 mmHg 47%
    14:00 +38°C° 0 mm 4 m/s 753 mmHg 46%
    15:00 +38°C° 0 mm 4 m/s 752 mmHg 47%
    16:00 +37°C° 0 mm 4 m/s 752 mmHg 48%
    17:00 +37°C° 0 mm 4 m/s 751 mmHg 48%
    18:00 +35°C° 0 mm 3 m/s 751 mmHg 54%
    19:00 +34°C° 0 mm 3 m/s 752 mmHg 60%
    20:00 +31°C° 0 mm 3 m/s 752 mmHg 66%
    21:00 +31°C° 0 mm 3 m/s 752 mmHg 67%
    22:00 +30°C° 0 mm 3 m/s 752 mmHg 69%
    23:00 +30°C° 0 mm 3 m/s 753 mmHg 70%
    Arată mai mult